Time,TemperatureF,DewpointF,PressureIn,WindDirection,WindDirectionDegrees,WindSpeedMPH,WindSpeedGustMPH,Humidity,HourlyPrecipIn,Conditions,Clouds,dailyrainin,SolarRadiationWatts/m^2,SoftwareType,DateUTC
2013-03-10 00:21:00,28.0,20.0,-100.00,East,80,4.0,6.0,71,0.00,,,0.00,1.000000,,2013-03-10 08:21:00,
2013-03-10 00:31:00,28.0,20.0,-100.00,East,80,4.0,6.0,71,0.00,,,0.00,1.000000,,2013-03-10 08:31:00,
2013-03-10 00:42:00,28.0,20.0,-100.00,East,80,4.0,6.0,71,0.00,,,0.00,1.000000,,2013-03-10 08:42:00,
2013-03-10 00:51:00,28.0,20.0,-100.00,East,80,4.0,6.0,71,0.00,,,0.00,1.000000,,2013-03-10 08:51:00,
2013-03-10 01:21:00,27.0,20.0,-100.00,ENE,68,6.0,7.0,73,0.00,,,0.00,1.000000,,2013-03-10 09:21:00,
2013-03-10 01:31:00,27.0,20.0,-100.00,ENE,68,6.0,7.0,73,0.00,,,0.00,1.000000,,2013-03-10 09:31:00,
2013-03-10 01:41:00,27.0,20.0,-100.00,ENE,68,6.0,7.0,73,0.00,,,0.00,1.000000,,2013-03-10 09:41:00,
2013-03-10 01:51:00,27.0,20.0,-100.00,ENE,68,6.0,7.0,73,0.00,,,0.00,1.000000,,2013-03-10 09:51:00,
2013-03-10 03:21:00,26.0,19.0,-100.00,ENE,77,5.0,8.0,75,0.00,,,0.00,1.000000,,2013-03-10 10:21:00,
2013-03-10 03:32:00,26.0,19.0,-100.00,ENE,77,5.0,8.0,75,0.00,,,0.00,1.000000,,2013-03-10 10:32:00,
2013-03-10 03:41:00,26.0,19.0,-100.00,ENE,77,5.0,8.0,75,0.00,,,0.00,1.000000,,2013-03-10 10:41:00,
2013-03-10 03:51:00,26.0,19.0,-100.00,ENE,77,5.0,8.0,75,0.00,,,0.00,1.000000,,2013-03-10 10:51:00,
2013-03-10 08:21:00,23.0,18.0,-100.00,ENE,72,8.0,11.0,82,-99.99,,,0.00,8.000000,,2013-03-10 15:21:00,
2013-03-10 08:31:00,23.0,18.0,-100.00,ENE,72,8.0,11.0,82,-99.99,,,0.00,8.000000,,2013-03-10 15:31:00,
2013-03-10 08:42:00,23.0,18.0,-100.00,ENE,72,8.0,11.0,82,-99.99,,,0.00,8.000000,,2013-03-10 15:42:00,
2013-03-10 08:51:00,23.0,18.0,-100.00,ENE,72,8.0,11.0,82,-99.99,,,0.00,8.000000,,2013-03-10 15:51:00,
2013-03-10 09:21:00,28.0,20.0,-100.00,NE,49,6.0,10.0,71,0.00,,,0.00,110.000000,,2013-03-10 16:21:00,
2013-03-10 09:31:00,28.0,20.0,-100.00,NE,49,6.0,10.0,71,0.00,,,0.00,110.000000,,2013-03-10 16:31:00,
2013-03-10 09:41:00,28.0,20.0,-100.00,NE,49,6.0,10.0,71,0.00,,,0.00,110.000000,,2013-03-10 16:41:00,
2013-03-10 09:51:00,28.0,20.0,-100.00,NE,49,6.0,10.0,71,0.00,,,0.00,110.000000,,2013-03-10 16:51:00,
2013-03-10 11:21:00,40.0,22.0,-100.00,East,86,3.0,7.0,49,-99.99,,,0.00,474.000000,,2013-03-10 18:21:00,
2013-03-10 11:31:00,40.0,22.0,-100.00,East,86,3.0,7.0,49,-99.99,,,0.00,474.000000,,2013-03-10 18:31:00,
2013-03-10 11:41:00,40.0,22.0,-100.00,East,86,3.0,7.0,49,-99.99,,,0.00,474.000000,,2013-03-10 18:41:00,
2013-03-10 11:52:00,40.0,22.0,-100.00,East,86,3.0,7.0,49,-99.99,,,0.00,474.000000,,2013-03-10 18:52:00,
2013-03-10 12:21:00,47.0,23.0,-100.00,WSW,241,3.0,7.0,39,0.00,,,0.00,628.000000,,2013-03-10 19:21:00,
2013-03-10 12:31:00,47.0,23.0,-100.00,WSW,241,3.0,7.0,39,0.00,,,0.00,628.000000,,2013-03-10 19:31:00,
2013-03-10 12:41:00,47.0,23.0,-100.00,WSW,241,3.0,7.0,39,0.00,,,0.00,628.000000,,2013-03-10 19:41:00,
2013-03-10 12:52:00,47.0,23.0,-100.00,WSW,241,3.0,7.0,39,0.00,,,0.00,628.000000,,2013-03-10 19:52:00,
2013-03-10 13:22:00,48.0,29.0,-100.00,WSW,252,5.0,9.0,47,0.00,,,0.00,731.000000,,2013-03-10 20:22:00,
2013-03-10 13:32:00,48.0,29.0,-100.00,WSW,252,5.0,9.0,47,0.00,,,0.00,731.000000,,2013-03-10 20:32:00,
2013-03-10 14:22:00,48.0,24.0,-100.00,WSW,238,5.0,11.0,38,0.00,,,0.00,655.000000,,2013-03-10 21:22:00,
2013-03-10 14:32:00,48.0,24.0,-100.00,WSW,238,5.0,11.0,38,0.00,,,0.00,655.000000,,2013-03-10 21:32:00,
2013-03-10 14:42:00,48.0,24.0,-100.00,WSW,238,5.0,11.0,38,0.00,,,0.00,655.000000,,2013-03-10 21:42:00,
2013-03-10 14:52:00,48.0,24.0,-100.00,WSW,238,5.0,11.0,38,0.00,,,0.00,655.000000,,2013-03-10 21:52:00,
2013-03-10 15:22:00,54.0,22.0,-100.00,WSW,258,5.0,10.0,29,0.00,,,0.00,694.000000,,2013-03-10 22:22:00,
2013-03-10 15:32:00,54.0,22.0,-100.00,WSW,258,5.0,10.0,29,0.00,,,0.00,694.000000,,2013-03-10 22:32:00,
2013-03-10 15:42:00,54.0,22.0,-100.00,WSW,258,5.0,10.0,29,0.00,,,0.00,694.000000,,2013-03-10 22:42:00,
2013-03-10 15:52:00,54.0,22.0,-100.00,WSW,258,5.0,10.0,29,0.00,,,0.00,694.000000,,2013-03-10 22:52:00,
2013-03-10 16:22:00,54.0,23.0,-100.00,West,266,6.0,9.0,30,0.00,,,0.00,578.000000,,2013-03-10 23:22:00,
2013-03-10 16:32:00,54.0,23.0,-100.00,West,266,6.0,9.0,30,0.00,,,0.00,578.000000,,2013-03-10 23:32:00,
2013-03-10 16:42:00,54.0,23.0,-100.00,West,266,6.0,9.0,30,0.00,,,0.00,578.000000,,2013-03-10 23:42:00,
2013-03-10 16:51:00,54.0,23.0,-100.00,West,266,6.0,9.0,30,0.00,,,0.00,578.000000,,2013-03-10 23:51:00,
2013-03-10 17:22:00,55.0,21.0,-100.00,WSW,252,5.0,9.0,26,0.00,,,0.00,427.000000,,2013-03-11 00:22:00,
2013-03-10 17:32:00,55.0,21.0,-100.00,WSW,252,5.0,9.0,26,0.00,,,0.00,427.000000,,2013-03-11 00:32:00,
2013-03-10 17:42:00,55.0,21.0,-100.00,WSW,252,5.0,9.0,26,0.00,,,0.00,427.000000,,2013-03-11 00:42:00,
2013-03-10 17:52:00,55.0,21.0,-100.00,WSW,252,5.0,9.0,26,0.00,,,0.00,427.000000,,2013-03-11 00:52:00,
2013-03-10 18:22:00,55.0,17.0,-100.00,WSW,248,4.0,8.0,22,0.00,,,0.00,314.000000,,2013-03-11 01:22:00,
2013-03-10 18:32:00,55.0,17.0,-100.00,WSW,248,4.0,8.0,22,0.00,,,0.00,314.000000,,2013-03-11 01:32:00,
2013-03-10 18:42:00,55.0,17.0,-100.00,WSW,248,4.0,8.0,22,0.00,,,0.00,314.000000,,2013-03-11 01:42:00,
2013-03-10 19:22:00,49.0,16.0,-100.00,WSW,248,3.0,8.0,26,0.00,,,0.00,117.000000,,2013-03-11 02:22:00,
2013-03-10 19:32:00,49.0,16.0,-100.00,WSW,248,3.0,8.0,26,0.00,,,0.00,117.000000,,2013-03-11 02:32:00,
2013-03-10 19:42:00,49.0,16.0,-100.00,WSW,248,3.0,8.0,26,0.00,,,0.00,117.000000,,2013-03-11 02:42:00,
2013-03-10 19:52:00,49.0,16.0,-100.00,WSW,248,3.0,8.0,26,0.00,,,0.00,117.000000,,2013-03-11 02:52:00,
2013-03-10 20:22:00,45.0,20.0,-100.00,SSE,158,3.0,5.0,36,0.00,,,0.00,3.000000,,2013-03-11 03:22:00,
2013-03-10 20:32:00,45.0,20.0,-100.00,SSE,158,3.0,5.0,36,0.00,,,0.00,3.000000,,2013-03-11 03:32:00,
2013-03-10 20:42:00,45.0,20.0,-100.00,SSE,158,3.0,5.0,36,0.00,,,0.00,3.000000,,2013-03-11 03:42:00,
2013-03-10 20:51:00,45.0,20.0,-100.00,SSE,158,3.0,5.0,36,0.00,,,0.00,3.000000,,2013-03-11 03:51:00,
2013-03-10 21:22:00,43.0,26.0,-100.00,ESE,118,2.0,4.0,51,0.00,,,0.00,1.000000,,2013-03-11 04:22:00,
2013-03-10 21:32:00,43.0,26.0,-100.00,ESE,118,2.0,4.0,51,0.00,,,0.00,1.000000,,2013-03-11 04:32:00,
2013-03-10 21:42:00,43.0,26.0,-100.00,ESE,118,2.0,4.0,51,0.00,,,0.00,1.000000,,2013-03-11 04:42:00,
2013-03-10 21:52:00,43.0,26.0,-100.00,ESE,118,2.0,4.0,51,0.00,,,0.00,1.000000,,2013-03-11 04:52:00,
2013-03-10 22:22:00,43.0,28.0,-100.00,SSW,207,3.0,5.0,54,0.00,,,0.00,1.000000,,2013-03-11 05:22:00,
2013-03-10 22:32:00,43.0,28.0,-100.00,SSW,207,3.0,5.0,54,0.00,,,0.00,1.000000,,2013-03-11 05:32:00,
2013-03-10 22:42:00,43.0,28.0,-100.00,SSW,207,3.0,5.0,54,0.00,,,0.00,1.000000,,2013-03-11 05:42:00,
2013-03-10 22:52:00,43.0,28.0,-100.00,SSW,207,3.0,5.0,54,0.00,,,0.00,1.000000,,2013-03-11 05:52:00,
2013-03-10 23:22:00,38.0,25.0,-100.00,ESE,104,3.0,4.0,58,0.00,,,0.00,1.000000,,2013-03-11 06:22:00,
2013-03-10 23:32:00,38.0,25.0,-100.00,ESE,104,3.0,4.0,58,0.00,,,0.00,1.000000,,2013-03-11 06:32:00,
2013-03-10 23:42:00,38.0,25.0,-100.00,ESE,104,3.0,4.0,58,0.00,,,0.00,1.000000,,2013-03-11 06:42:00,
2013-03-10 23:52:00,38.0,25.0,-100.00,ESE,104,3.0,4.0,58,0.00,,,0.00,1.000000,,2013-03-11 06:52:00,